Weather History for Vero Beach, FL

Change the Weather History Date:

Thursday, March 21, 2013

  Actual Average Record
Temperature  
Mean Temperature 59 °F 68 °F  
Max Temperature 71 °F 78 °F 92 °F (1977)
Min Temperature 46 °F 58 °F 36 °F (1981)
Degree Days  
Heating Degree Days 6 1  
Month to date heating degree days 124 45  
Since 1 July heating degree days 352 430  
Cooling Degree Days 0 4  
Month to date cooling degree days 30 84  
Year to date cooling degree days 265 223  
Growing Degree Days 9 (Base 50)    
Moisture  
Dew Point 46 °F    
Average Humidity 59    
Maximum Humidity 93    
Minimum Humidity 25    
Precipitation  
Precipitation 0.00 in 0.15 in 6.80 in (1993)
Month to date precipitation 0.05 2.74  
Year to date precipitation 2.60 7.91  
Sea Level Pressure  
Sea Level Pressure 29.91 in    
Wind  
Wind Speed 7 mph (NNW)    
Max Wind Speed 16 mph    
Max Gust Speed 22 mph    
Visibility 10 miles    
Events      
T = Trace of Precipitation, MM = Missing Value Source: NWS Daily Summary

Daily Weather History Graph

Daily Weather History Graph

Search for Another Location

Airport:

Trip Planner

Search our weather history database for the weather conditions in past years. The results will help you decide how hot, cold, wet, or windy it might be!

Date:

Astronomy

Mar. 21, 2013 Rise Set
Actual Time 7:24 AM EDT 7:33 PM EDT
Civil Twilight 7:00 AM EDT 7:57 PM EDT
Nautical Twilight 6:33 AM EDT 8:24 PM EDT
Astronomical Twilight 6:06 AM EDT 8:51 PM EDT
Moon 2:26 PM EDT 3:19 AM EDT
Length of Visible Light 12h 56m
Length of Day
12h 09m
Waxing Gibbous, 68% of the Moon is Illuminated
Mar 21
Waxing Gibbous
Mar 27
Full
Apr 3
Last Quarter
Apr 10
New
Apr 18
First Quarter

Hourly Weather History & Observations

Time (EDT) Temp. Dew Point Humidity Pressure Visibility Wind Dir Wind Speed Gust Speed Precip Events Conditions
12:33 AM 64.4 °F 60.8 °F 88% 29.85 in 10.0 mi West 9.2 mph - N/A   Mostly Cloudy
12:53 AM 64.0 °F 60.1 °F 87% 29.86 in 10.0 mi West 10.4 mph - N/A   Mostly Cloudy
1:13 AM 62.6 °F 59.0 °F 88% 29.85 in 10.0 mi West 5.8 mph - N/A   Partly Cloudy
2:28 AM 62.6 °F 60.8 °F 94% 29.86 in 10.0 mi NW 8.1 mph - N/A   Mostly Cloudy
2:53 AM 62.1 °F 57.0 °F 84% 29.85 in 10.0 mi WNW 5.8 mph - N/A   Overcast
3:53 AM 61.0 °F 55.9 °F 83% 29.88 in 10.0 mi WNW 8.1 mph - N/A   Mostly Cloudy
4:53 AM 59.0 °F 54.0 °F 83% 29.87 in 10.0 mi NW 6.9 mph - N/A   Mostly Cloudy
5:53 AM 57.0 °F 53.1 °F 87% 29.89 in 10.0 mi NW 9.2 mph - N/A   Clear
6:53 AM 54.0 °F 51.1 °F 90% 29.91 in 10.0 mi NW 5.8 mph - N/A   Clear
7:53 AM 54.0 °F 51.1 °F 90% 29.93 in 10.0 mi NW 8.1 mph - N/A   Clear
8:53 AM 57.0 °F 48.9 °F 74% 29.94 in 10.0 mi NW 10.4 mph - N/A   Clear
9:53 AM 63.0 °F 44.1 °F 50% 29.95 in 10.0 mi NNW 12.7 mph - N/A   Clear
10:53 AM 64.9 °F 36.0 °F 34% 29.95 in 10.0 mi North 13.8 mph 19.6 mph N/A   Clear
11:53 AM 68.0 °F 33.1 °F 27% 29.96 in 10.0 mi North 11.5 mph 21.9 mph N/A   Clear
12:53 PM 69.1 °F 32.0 °F 25% 29.96 in 10.0 mi North 11.5 mph 18.4 mph N/A   Clear
1:53 PM 70.0 °F 33.1 °F 26% 29.94 in 10.0 mi NNE 11.5 mph - N/A   Clear
2:53 PM 69.1 °F 35.1 °F 29% 29.91 in 10.0 mi NNE 11.5 mph - N/A   Clear
3:53 PM 68.0 °F 35.1 °F 30% 29.90 in 10.0 mi ENE 6.9 mph - N/A   Clear
4:53 PM 68.0 °F 39.0 °F 35% 29.89 in 10.0 mi NE 5.8 mph - N/A   Clear
5:53 PM 68.0 °F 39.9 °F 36% 29.89 in 10.0 mi ENE 6.9 mph - N/A   Clear
6:53 PM 64.9 °F 39.9 °F 40% 29.91 in 10.0 mi ENE 5.8 mph - N/A   Clear
7:53 PM 57.9 °F 42.1 °F 56% 29.92 in 10.0 mi Calm Calm - N/A   Clear
8:53 PM 53.1 °F 42.1 °F 66% 29.93 in 10.0 mi Calm Calm - N/A   Clear
9:53 PM 51.1 °F 41.0 °F 68% 29.95 in 10.0 mi Calm Calm - N/A   Clear
10:53 PM 48.0 °F 41.0 °F 77% 29.96 in 10.0 mi Calm Calm - N/A   Clear
11:53 PM 50.0 °F 43.0 °F 77% 29.96 in 10.0 mi Calm Calm - N/A   Clear